Flight Track Log - Related Links

Times and Time Zones

All times are in EDT time to prevent confusion due to time zone crossing. See the UAL4457 flight status page for this flight to view local times or setup timezone preferences in your user account.

Time Position Orientation Groundspeed Altitude Reporting Facility
EDT Latitude Longitude Course Direction KTS MPH feet Rate Location/Type
Thu 05:50:25 PM 38.0206 -84.6231 247° West 160 184 36,000  Level Memphis Center
Thu 05:51:35 PM 37.9917 -84.6839 239° Southwest 200 230 3,900 -13,398 Descending Indianapolis Center
Thu 05:52:38 PM 37.9636 -84.7567 244° Southwest 214 246 6,300 2,496 Climbing Indianapolis Center
Thu 05:53:40 PM 37.9297 -84.8436 244° Southwest 227 261 9,100 2,274 Climbing Indianapolis Center
Thu 05:54:00 PM 37.8531 -85.0430 241° Southwest  Level FlightAware Approximate
Thu 05:54:42 PM 37.8964 -84.9278 243° Southwest 252 290 11,000  Level Indianapolis Center
Thu 05:55:00 PM 37.8096 -85.1547 247° West  Level FlightAware Approximate
Thu 05:55:44 PM 37.8625 -85.0094 242° Southwest 258 297 13,300  Level Indianapolis Center
Thu 05:56:46 PM 37.8247 -85.0850 238° Southwest 258 297 15,400 1,839 Climbing Indianapolis Center
Thu 05:57:48 PM 37.7747 -85.1581 229° Southwest 269 310 17,100 1,645 Climbing Indianapolis Center
Thu 05:58:50 PM 37.7147 -85.2453 229° Southwest 276 318 18,800 1,597 Climbing Indianapolis Center
Thu 05:59:52 PM 37.6606 -85.3239 229° Southwest 286 329 20,400 1,548 Climbing Indianapolis Center
Thu 06:00:54 PM 37.6047 -85.4042 229° Southwest 297 342 22,000 1,584 Climbing Indianapolis Center
Thu 06:01:57 PM 37.5481 -85.4861 229° Southwest 304 350 23,700 1,632 Climbing Indianapolis Center
Thu 06:02:59 PM 37.4867 -85.5747 229° Southwest 304 350 25,400 1,548 Climbing Indianapolis Center
Thu 06:04:01 PM 37.4286 -85.6567 228° Southwest 308 354 26,900 1,258 Climbing Indianapolis Center
Thu 06:05:03 PM 37.3694 -85.7408 229° Southwest 312 359 28,000 1,016 Climbing Indianapolis Center
Thu 06:06:05 PM 37.3097 -85.8278 229° Southwest 319 367 29,000 1,016 Climbing Indianapolis Center
Thu 06:07:07 PM 37.2400 -85.9244 228° Southwest 336 387 30,100 1,065 Climbing Indianapolis Center
Thu 06:08:09 PM 37.1756 -86.0153 228° Southwest 341 392 31,200 1,016 Climbing Indianapolis Center
Thu 06:09:11 PM 37.1092 -86.1089 228° Southwest 352 405 32,200 968 Climbing Indianapolis Center
Thu 06:10:13 PM 37.0431 -86.2033 229° Southwest 355 409 33,200 1,065 Climbing Indianapolis Center
Thu 06:11:15 PM 36.9642 -86.3142 228° Southwest 361 415 34,400 1,086 Climbing Indianapolis Center
Thu 06:12:09 PM 36.9075 -86.3933 228° Southwest 362 417 35,300 828 Climbing Memphis Center
Thu 06:13:11 PM 36.8414 -86.4858 228° Southwest 359 413 36,000 339 Climbing Memphis Center
Thu 06:14:13 PM 36.7725 -86.5819 228° Southwest 361 415 36,000  Level Memphis Center
Thu 06:15:15 PM 36.7008 -86.6819 228° Southwest 378 435 36,000  Level Memphis Center
Thu 06:16:17 PM 36.6128 -86.8039 228° Southwest 397 457 36,000  Level Memphis Center
Thu 06:17:19 PM 36.5381 -86.9069 228° Southwest 399 459 36,000  Level Memphis Center
Thu 06:18:21 PM 36.4631 -87.0092 228° Southwest 400 460 36,000  Level Memphis Center
Thu 06:19:23 PM 36.3883 -87.1119 228° Southwest 400 460 36,000  Level Memphis Center
Thu 06:20:25 PM 36.3122 -87.2161 228° Southwest 405 466 36,000  Level Memphis Center
Thu 06:21:27 PM 36.2231 -87.3367 228° Southwest 405 466 36,000  Level Memphis Center
Thu 06:22:29 PM 36.1464 -87.4403 228° Southwest 405 466 36,000  Level Memphis Center
Thu 06:23:31 PM 36.0719 -87.5425 228° Southwest 402 463 36,000  Level Memphis Center
Thu 06:24:34 PM 36.0000 -87.6394 227° Southwest 387 445 36,000  Level Memphis Center
Thu 06:25:36 PM 35.9256 -87.7403 228° Southwest 388 447 36,000  Level Memphis Center
Thu 06:26:38 PM 35.8497 -87.8403 227° Southwest 393 452 36,000  Level Memphis Center
Thu 06:27:40 PM 35.7742 -87.9414 227° Southwest 395 455 36,000  Level Memphis Center
Thu 06:28:42 PM 35.6861 -88.0600 228° Southwest 395 455 36,000  Level Memphis Center
Thu 06:29:44 PM 35.6194 -88.1469 227° Southwest 396 456 36,000  Level Memphis Center
Thu 06:30:46 PM 35.5439 -88.2489 228° Southwest 399 459 36,000  Level Memphis Center
Thu 06:31:48 PM 35.4547 -88.3683 228° Southwest 399 459 36,000  Level Memphis Center
Thu 06:32:50 PM 35.3833 -88.4603 226° Southwest 399 459 36,000  Level Memphis Center
Thu 06:33:52 PM 35.3050 -88.5631 227° Southwest 397 457 36,000  Level Memphis Center
Thu 06:34:54 PM 35.2314 -88.6592 227° Southwest 392 451 36,000  Level Memphis Center
Thu 06:35:56 PM 35.1583 -88.7556 227° Southwest 390 449 36,000  Level Memphis Center
Thu 06:36:58 PM 35.0858 -88.8511 227° Southwest 389 448 36,000  Level Memphis Center
Thu 06:38:00 PM 34.9972 -88.9647 226° Southwest 386 444 36,000  Level Memphis Center
Thu 06:39:03 PM 34.9247 -89.0594 227° Southwest 386 444 36,000  Level Memphis Center
Thu 06:40:05 PM 34.8517 -89.1525 226° Southwest 384 442 36,000  Level Memphis Center
Thu 06:41:07 PM 34.7786 -89.2467 227° Southwest 383 441 36,000  Level Memphis Center
Thu 06:42:09 PM 34.7058 -89.3414 227° Southwest 383 441 36,000  Level Memphis Center
Thu 06:43:11 PM 34.6322 -89.4336 226° Southwest 382 440 36,000  Level Memphis Center
Thu 06:44:13 PM 34.5606 -89.5275 227° Southwest 380 437 36,000  Level Memphis Center
Thu 06:45:15 PM 34.4728 -89.6378 226° Southwest 379 436 36,000  Level Memphis Center
Thu 06:46:17 PM 34.4006 -89.7306 227° Southwest 379 436 36,000  Level Memphis Center
Thu 06:47:19 PM 34.3267 -89.8233 226° Southwest 379 436 36,000  Level Memphis Center
Thu 06:48:21 PM 34.2536 -89.9161 226° Southwest 379 436 36,000  Level Memphis Center
Thu 06:49:23 PM 34.1806 -90.0072 226° Southwest 379 436 36,000  Level Memphis Center
Thu 06:50:25 PM 34.1083 -90.0983 226° Southwest 379 436 36,000  Level Memphis Center
Thu 06:51:27 PM 34.0208 -90.2086 226° Southwest 377 434 36,000  Level Memphis Center
Thu 06:52:30 PM 33.9481 -90.2983 226° Southwest 377 434 36,000  Level Memphis Center
Thu 06:53:32 PM 33.8756 -90.3886 226° Southwest 377 434 36,000  Level Memphis Center
Thu 06:54:34 PM 33.8033 -90.4783 226° Southwest 377 434 36,000  Level Memphis Center
Thu 06:55:36 PM 33.7303 -90.5686 226° Southwest 377 434 36,000  Level Memphis Center
Thu 06:56:38 PM 33.6442 -90.6769 226° Southwest 377 434 36,000  Level Memphis Center
Thu 06:57:40 PM 33.5708 -90.7644 225° Southwest 377 434 36,000  Level Memphis Center
Thu 06:58:42 PM 33.4986 -90.8544 226° Southwest 377 434 36,000  Level Memphis Center
Thu 06:59:44 PM 33.4264 -90.9442 226° Southwest 377 434 36,000  Level Memphis Center
Thu 07:00:46 PM 33.3519 -91.0333 225° Southwest 378 435 36,000  Level Memphis Center
Thu 07:01:48 PM 33.2639 -91.1400 225° Southwest 378 435 36,000  Level Memphis Center
Thu 07:02:50 PM 33.1894 -91.2306 226° Southwest 380 437 36,000  Level Memphis Center
Thu 07:03:52 PM 33.1169 -91.3203 226° Southwest 380 437 36,000  Level Memphis Center
Thu 07:04:54 PM 33.0422 -91.4092 225° Southwest 380 437 36,000  Level Memphis Center
Thu 07:05:56 PM 32.9664 -91.4992 225° Southwest 382 440 36,000  Level Memphis Center
Thu 07:06:59 PM 32.8775 -91.6081 226° Southwest 383 441 36,000  Level Memphis Center
Thu 07:08:01 PM 32.8025 -91.6981 225° Southwest 383 441 36,000  Level Memphis Center
Thu 07:09:03 PM 32.7269 -91.7892 225° Southwest 387 445 36,000  Level Memphis Center
Thu 07:10:45 PM 32.6044 -91.9353 225° Southwest 387 445 36,000  Level Fort Worth Center
Thu 07:11:47 PM 32.5131 -92.0439 225° Southwest 387 445 36,000  Level Fort Worth Center
Thu 07:12:49 PM 32.4322 -92.1381 225° Southwest 388 447 36,000  Level Fort Worth Center
Thu 07:13:51 PM 32.3603 -92.2233 225° Southwest 388 447 36,000  Level Fort Worth Center
Thu 07:14:53 PM 32.2831 -92.3150 225° Southwest 390 449 36,000  Level Fort Worth Center
Thu 07:15:55 PM 32.2056 -92.4044 224° Southwest 390 449 36,000  Level Fort Worth Center
Thu 07:16:58 PM 32.1133 -92.5133 225° Southwest 391 450 36,000  Level Fort Worth Center
Thu 07:18:00 PM 32.0361 -92.6042 225° Southwest 395 455 36,000  Level Fort Worth Center
Thu 07:19:02 PM 31.9575 -92.6939 224° Southwest 395 455 36,000  Level Fort Worth Center
Thu 07:20:04 PM 31.8717 -92.7739 218° Southwest 399 459 36,000  Level Fort Worth Center
Thu 07:21:06 PM 31.7853 -92.8606 220° Southwest 401 461 36,000  Level Fort Worth Center
Thu 07:22:08 PM 31.6819 -92.9597 219° Southwest 401 461 36,000  Level Fort Worth Center
Thu 07:23:10 PM 31.5875 -93.0497 219° Southwest 405 466 36,000  Level Fort Worth Center
Thu 07:24:12 PM 31.5078 -93.1272 220° Southwest 405 466 36,000  Level Fort Worth Center
Thu 07:25:14 PM 31.4203 -93.2114 219° Southwest 406 467 36,000  Level Fort Worth Center
Thu 07:26:16 PM 31.3319 -93.2944 219° Southwest 410 472 36,000 -290 Level Fort Worth Center
Thu 07:27:18 PM 31.2261 -93.3956 219° Southwest 410 472 35,400 -1,104 Descending Fort Worth Center
Thu 07:28:21 PM 31.1378 -93.4786 219° Southwest 410 472 33,700 -1,680 Descending Fort Worth Center
Thu 07:29:23 PM 31.0561 -93.5558 219° Southwest 385 443 31,900 -1,872 Descending Fort Worth Center
Thu 07:30:42 PM 30.9436 -93.6639 219° Southwest 376 433 29,300 -1,817 Descending Houston Center
Thu 07:31:45 PM 30.8558 -93.7464 219° Southwest 402 463 27,600 -1,680 Descending Houston Center
Thu 07:32:47 PM 30.7683 -93.8294 219° Southwest 405 466 25,800 -1,839 Descending Houston Center
Thu 07:33:49 PM 30.6803 -93.9136 219° Southwest 408 470 23,800 -1,984 Descending Houston Center
Thu 07:34:51 PM 30.5928 -93.9944 219° Southwest 411 473 21,700 -2,296 Descending Houston Center
Thu 07:35:10 PM 30.5517 -94.0314 218° Southwest 392 451 20,700 -2,613 Descending Houston Center
Thu 07:35:53 PM 30.4925 -94.0875 219° Southwest 394 453 19,000 -2,384 Descending Houston Center
Thu 07:36:23 PM 30.4500 -94.1275 219° Southwest 387 445 17,800 -2,032 Descending Houston Center
Thu 07:36:55 PM 30.4092 -94.1664 219° Southwest 392 451 16,900 -2,118 Descending Houston Center
Thu 07:37:31 PM 30.3578 -94.2150 219° Southwest 379 436 15,400 -2,226 Descending Houston Center
Thu 07:37:57 PM 30.3289 -94.2403 217° Southwest 377 434 14,600 -2,262 Descending Houston Center
Thu 07:38:32 PM 30.2750 -94.2914 219° Southwest 363 418 13,100 -1,935 Descending Houston Center
Thu 07:38:59 PM 30.2511 -94.3133 218° Southwest 366 421 12,600 -1,091 Descending Houston Center
Thu 07:39:27 PM 30.2081 -94.3558 220° Southwest 352 405 12,100 -571 Descending Houston Center
Thu 07:40:02 PM 30.1864 -94.3911 235° Southwest 334 384 12,000 -627 Descending Houston Center
Thu 07:40:34 PM 30.1614 -94.4589 247° West 311 358 11,400 -968 Descending Houston Center
Thu 07:41:04 PM 30.1500 -94.4928 249° West 312 359 11,000 -1,082 Descending Houston Center
Thu 07:41:35 PM 30.1319 -94.5447 248° West 264 304 10,300 -1,065 Descending Houston Center
Thu 07:42:06 PM 30.1211 -94.5742 247° West 282 325 9,900 -1,075 Descending Houston Center
Thu 07:42:42 PM 30.0986 -94.6336 246° West 276 318 9,100 -968 Descending Houston Center
Thu 07:43:08 PM 30.0925 -94.6544 251° West 272 313 8,900 -982 Descending Houston Center
Thu 07:43:37 PM 30.0850 -94.7103 261° West 270 311 8,200 -871 Descending Houston Center
Thu 07:44:10 PM 30.0758 -94.7564 257° West 273 314 8,000 -98 Descending Houston Center
Thu 07:44:38 PM 30.0681 -94.7969 258° West 265 305 8,100 -387 Climbing Houston Center
Thu 07:45:12 PM 30.0608 -94.8389 259° West 268 308 7,600 -1,161 Descending Houston Center
Thu 07:45:40 PM 30.0531 -94.8811 258° West 262 302 6,900 -1,258 Descending Houston Center
Thu 07:46:14 PM 30.0467 -94.9197 259° West 264 304 6,300 -1,279 Descending Houston Center
Thu 07:46:41 PM 30.0397 -94.9625 259° West 261 300 5,600 -1,161 Descending Houston Center
Thu 07:47:16 PM 30.0322 -95.0022 258° West 263 303 5,100 -1,279 Descending Houston Center
Thu 07:47:42 PM 30.0242 -95.0439 257° West 254 292 4,300 -1,143 Descending Houston Center
Thu 07:48:19 PM 30.0189 -95.0803 260° West 254 292 3,900 -1,082 Descending Houston Center
Thu 07:48:43 PM 30.0089 -95.1256 256° West 250 288 3,200 -1,258 Descending Houston Center
Thu 07:49:21 PM 29.9992 -95.1731 257° West 252 290 2,600 -971 Descending Houston Center
Thu 07:49:51 PM 29.9956 -95.2092 263° West 238 274 2,100 -968 Descending Houston Center
Thu 07:50:23 PM 29.9928 -95.2392 264° West 225 259 1,600 -873 Descending Houston Center
Thu 07:50:46 PM 29.9939 -95.2600 274° West 150 173 1,300 -677 Descending Houston Center
Thu 07:51:25 PM 29.9928 -95.2864 267° West 178 205 900 -787 Descending Houston Center
Thu 07:51:47 PM 29.9942 -95.3083 274° West 146 168 500 -484 Descending Houston Center
Thu 07:52:27 PM 29.9928 -95.3369 267° West 161 185 400 -150 Descending Houston Center

Login

Don't have an account? Register now (free) for customized features, flight alerts, and more!